GW3560 Weather Reports


time (UTC)temp
C
wind
direction
speed
KPH
gust
KPH
rain 1hr
cm
rain 24hr
cm
rain mn
cm
humidity
%
barometer
mb
20260505081532 10 31 1.6 4.8 0.00 0.71 0.03 71 1019.1
20260505080039 11 264 0.0 1.6 0.00 0.71 0.03 70 1018.8
20260505074544 11 285 0.0 3.2 0.00 0.71 0.03 67 1018.6
20260505073044 12 163 0.0 3.2 0.00 0.71 0.03 66 1018.3
20260505071510 12 254 0.0 3.2 0.00 0.71 0.03 66 1018.0
20260505070008 13 245 0.0 8.0 0.00 0.71 0.03 61 1017.8
20260505064522 14 248 3.2 9.7 0.00 0.71 0.03 58 1017.7
20260505063016 15 244 4.8 11.3 0.00 0.71 0.03 57 1017.5
20260505061515 15 270 4.8 9.7 0.00 0.71 0.03 56 1017.5
20260505060011 15 252 6.4 20.9 0.00 0.71 0.03 56 1017.4
20260505054526 16 259 1.6 8.0 0.00 0.71 0.03 55 1017.4
20260505053022 16 237 3.2 11.3 0.00 0.71 0.03 53 1017.4
20260505051522 15 234 6.4 14.5 0.00 0.71 0.03 55 1017.2
20260505041520 16 280 6.4 17.7 0.00 0.71 0.03 58 1016.5
20260505034554 15 296 8.0 16.1 0.00 0.71 0.03 66 1016.3
20260505033042 15 275 6.4 19.3 0.00 0.71 0.03 64 1016.4
20260505031503 15 284 9.7 20.9 0.00 0.71 0.03 63 1016.6
20260505030057 14 279 6.4 19.3 0.00 0.71 0.03 65 1016.9
20260505024603 14 279 6.4 14.5 0.00 0.71 0.03 65 1017.2
20260505023052 14 284 6.4 16.1 0.00 0.71 0.03 65 1017.4
20260505021512 13 262 4.8 19.3 0.00 0.71 0.03 69 1017.6
20260505020015 13 306 11.3 22.5 0.00 0.71 0.03 67 1017.9
20260505014511 13 263 9.7 22.5 0.00 0.71 0.03 66 1018.1
20260505013003 13 254 9.7 19.3 0.00 0.71 0.03 67 1018.5
20260505011518 13 268 11.3 19.3 0.00 0.71 0.03 67 1018.6
20260505010058 13 241 8.0 19.3 0.00 0.71 0.03 69 1018.6
20260505004506 12 225 8.0 19.3 0.00 0.71 0.03 70 1018.8
20260505003038 12 270 8.0 19.3 0.00 0.71 0.03 71 1018.9
20260505001549 12 266 4.8 14.5 0.00 0.71 0.03 75 1019.0
20260505000027 11 244 3.2 14.5 0.00 0.76 0.03 75 1019.0
20260504234532 11 281 3.2 8.0 0.00 0.76 0.03 78 1019.1
20260504233019 11 270 3.2 12.9 0.00 0.76 0.03 77 1019.1
20260504231533 11 287 3.2 9.7 0.00 0.76 0.03 80 1019.0
20260504230019 11 263 4.8 11.3 0.00 1.04 0.03 80 1018.9
20260504224537 10 265 4.8 9.7 0.00 1.04 0.03 81 1018.7
20260504223011 10 226 1.6 8.0 0.00 1.04 0.03 83 1018.5
20260504221529 9 237 3.2 12.9 0.00 1.04 0.03 84 1018.3
20260504220019 8 259 1.6 4.8 0.00 1.04 0.03 86 1018.1
20260504214534 8 310 1.6 8.0 0.00 1.04 0.03 88 1017.9
20260504213022 8 294 0.0 3.2 0.00 1.04 0.03 89 1017.4
20260504211543 7 288 0.0 4.8 0.00 1.04 0.03 89 1017.2
20260504210006 7 305 0.0 3.2 0.03 1.04 0.03 90 1017.0
20260504204528 7 315 0.0 3.2 0.03 1.04 0.03 90 1017.0
20260504203134 7 313 0.0 3.2 0.03 1.04 0.03 90 1016.8
20260504203002 7 284 0.0 3.2 0.03 1.04 0.03 90 1016.8
20260504201511 7 357 0.0 1.6 0.03 1.04 0.03 89 1016.6
20260504200059 7 88 0.0 4.8 0.00 1.02 0.00 90 1016.5
20260504194558 7 44 0.0 1.6 0.00 1.02 0.00 90 1016.2
20260504193054 7 33 0.0 1.6 0.00 1.02 0.00 89 1015.9
20260504191502 7 312 0.0 1.6 0.00 1.02 0.00 88 1015.8
20260504190058 7 341 0.0 1.6 0.00 1.02 0.00 87 1015.7
20260504184603 7 312 0.0 6.4 0.00 1.02 0.00 87 1015.7
20260504184502 7 275 0.0 4.8 0.00 1.02 0.00 87 1015.6
20260504183050 8 306 0.0 4.8 0.00 1.02 0.00 87 1015.5
20260504181600 8 259 3.2 6.4 0.00 1.02 0.00 88 1015.4
20260504180036 8 232 0.0 1.6 0.00 1.02 0.00 89 1015.3
20260504174540 8 263 0.0 6.4 0.00 1.02 0.00 89 1015.2
20260504173022 8 263 0.0 6.4 0.00 1.02 0.00 89 1015.3
20260504171532 8 265 0.0 4.8 0.00 1.02 0.00 90 1015.6
20260504150104 9 246 1.6 8.0 0.00 1.02 0.00 90 1015.4